Погода в Утене

Погода в Утене : погода сейчас, прогноз погоды и архив. Всё, что Вы хотите узнать о погоде в Утене!

Поиск расширенной информации на нашем сайте:

Другие новости

Новости СМИ2

Главная страница сайта

Новости сайта

03.07.2017

Напоминаем, что на нашем специализированном сайте Метеоцентр.Азия вы можете получить высокодетализированные автоматические прогнозы погоды по пунктам России, СНГ и мира в авиационном формате (включающие направление и скорость ветра, видимость, явления погоды, количество и форму облачности, нижнюю и верхнюю границу облачности).

Рекомендуем: ветошь Спб

Погода в Утене - сегодня

Время (UTC), дата Ветер
(°,м/с) 
Видим.   Явления Облачность Т
(°С)
Тd
(°С)
f(%) Тe
(°С)
Pmin
(гПа)
dP
(гПа)
Po
(мм)
O2
(г/м3)
Тmin Tmax R s Состояние
почвы
03 19.09.17 250 (З) 3-8{14}  20000 м    8/6 1110 м средняя 
[Sc|Ac und]
+9.4 +7.7 89 +9  1009.5  2.1  748  290           
06 19.09.17 240 (ЮЗ) 2-8{08}  20000 м    8/4 600 м средняя 
[Sc|Ac und]
+10.3 +8.2 87 +10  1011.5  749  289  +9.2      мокрая 
09 19.09.17 240 (ЮЗ) 4-7{10}  20000 м    9/9 750 м 
[Cu med, cong]
+13.3 +9.8 79 +14  1013.1  1.7  750  287           
12 19.09.17 240 (ЮЗ) 5-10{11}  20000 м    6/5 600 м верхняя 
[Cu med, cong|Ci sp]
+15.4 +8.9 65 +15  1014.4  1.4  751  285           
15 19.09.17 250 (З) 2-6{11}  20000 м  в посл. час ливневой дождь  9/5 600 м средняя, верхняя 
[Cu med, cong|Ac und|Ci sp]
+12.1 +8.5 79 +12  1015.6  752  289           
18 19.09.17 200 (Ю) 1-4{06}  20000 м  {ливн. осадки}  8/4 600 м средняя 
[Sc|Ac und]
+11.6 +9.2 85 +13  1016.8  1.2  753  289    +16.5  0.6     
21 19.09.17 тихо () -0{04}  3200 м  дымка  ясно 
+8.7 +7.7 93 +9  1018.2  1.2  754  293           
00 20.09.17 тихо () -2{02}  5000 м  дымка  ясно 
+8.3 +7.7 96 +8  1018.7  0.5  754  294           
03 20.09.17 тихо () -2{02}  1700 м  дымка  8/3 600 м средняя, верхняя 
[Sc|Ac und|Ci sp]
+7.1 +6.7 97 +7  1018.9  0.2  754  295           
06 20.09.17 тихо () -0{02}  9000 м  дымка  9/4 600 м средняя, верхняя 
[Sc|Ac und|Ci sp]
+8.8 +8.4 97 +9  1019.6  0.7  755  293  +7        влажная 
09 20.09.17 тихо () -1{03}  18000 м    9/5 600 м средняя, верхняя 
[Sc|Ac und|Ci sp]
+12 +9.7 86 +13  1020.1  0.7  755  290           
12 20.09.17 160 (Ю) 2-4{06}  20000 м    9/5 600 м средняя, верхняя 
[Sc|Ac und|Ci sp]
+13.9 +9.4 74 +14  1020.5  0.4  756  288           
15 20.09.17 110 (В) 2-5{06}  20000 м  {ливн. осадки}  8/6 1500 м средняя 
[Sc|Ac und]
+13.7 +8.2 69 +14  1020.1  -0.4  755  288           
18 20.09.17 тихо () -0{05}  20000 м  {ливн. осадки}  10/10 1300 м 
[Sc]
+11.9 +8.5 80 +12  1020.6  0.5  756  290    +15.1  0.0     
21 20.09.17 090 (В) 1-3{03}  20000 м  {ливн. осадки}  9/9 900 м 
[Sc]
+11.8 +8.5 80 +13  1020.4  -0.2  756  290           
00 21.09.17 090 (В) 2-4{05}  20000 м  {ливн. осадки}  10/10 1170 м 
[Sc]
+12.1 +10.2 88 +13  1020  -0.4  755  290      0.1     
03 21.09.17 080 (В) 2-5{06}  20000 м    8/5 600 м средняя 
[Sc|Ac und]
+11.9 +10.4 91 +14  1019.5  -0.5  755  290           
06 21.09.17 080 (В) 3-5{05}  20000 м  {ливн. осадки}  8/6 1300 м средняя 
[Sc|Ac und]
+11.9 +10.2 89 +13  1018.5  -1  754  289  +11.2    0.1    влажная 
09 21.09.17 080 (В) 3-5{07}  17000 м  слаб. дождь  10/0 средняя 
[Ac As]
+13.1 +10.6 85 +15  1017.7  -0.8  754  288           
12 21.09.17 070 (В) 3-7{08}  20000 м  слаб. дождь  10/10 360 м 
[Frnb|Ns]
+11.9 +10.7 92 +14  1016.5  -1.2  753  289         
15 21.09.17 080 (В) 3-6{08}  20000 м  в посл. час ливневой дождь{гроза}  10/10 420 м 
[St]
+12.6 +11.3 92 +15  1015.7  -0.7  752  288           
18 21.09.17 090 (В) 3-6{08}  20000 м  {гроза, ливн. осадки}  10/10 1110 м 
[Sc]
+13 +10.9 87 +15  1015.6  -0.1  752  287    +13.2     
21 21.09.17 110 (В) 3-6{08}  20000 м    10/10 1110 м 
[Sc]
+13.5 +10.6 83 +16  1016.3  0.7  753  287           
00 22.09.17 110 (В) 3-7{10}  6000 м  гроза, ливневой дождь  10/6 600 м кучево-дожд., средняя 
[Cb cap|Ac cuf]
+13.1 +11.4 89 +16  1017.2  0.8  753  287         
03 22.09.17 130 (ЮВ) 4-10{14}  20000 м  слаб. ливневой дождь{гроза}  9/6 600 м кучево-дожд., средняя 
[Cb cap|Ac cuf]
+13.6 +11.8 89 +17  1014.8  -2.3  752  286           
Время (UTC), дата Ветер
(°,м/с) 
Видим.   Явления Облачность Т
(°С)
Тd
(°С)
f(%) Тe
(°С)
Pmin
(гПа)
dP
(гПа)
Po
(мм)
O2
(г/м3)
Тmin Tmax R s Состояние
почвы

Для получения пояснительной информации подведите курсор к названию столбца.

ПОГОДА в Утене - архив

Всё, что Вы хотите узнать о погоде в Утене - удобно и подробно!

Выберите нужную дату (начиная с 1 января 2015* года) и нажмите кнопку "Найти".
Будут отображены архивные сводки погоды по пункту Утена, начиная с указанной даты.


Отображать данные в формате CSV (для использования в таблицах Excel)


Внимание! Наш архив погоды предназначен исключительно для личного некоммерческого использования в познавательных целях. Если Вам необходимы официальные справки о состоянии погоды (для производственных, юридических, коммерческих и т.п. целей), обращайтесь в органы Росгидромета.

*Примечание: данная дата относится к архиву по метеостанциям СССР (Россия, СНГ, Балтия).
Архив по метеостанциям Зарубежной Европы и Азии (кроме Китая) хранится 10 дней, по другим регионам земного шара (Китай, Африка, Америка, Австралия, Океания) - 1 день.

Утена - район местоположения метеостанции


Название, широта, долгота, высота метеостанции:
Утена 55.5°ш. 25.6°д. 106 м над ур. моря [Литва]

Дополнительная информация

В oтличие oт бoльшинства пoгoдных сайтoв мы публикуем пoдрoбную метеoинфoрмацию в детальнoм прoфессиoнальнoм фoрмате.

Характеристики температуры и влажнoсти вoздуха измеряются на высoте 2 м в тени вдали oт зданий и деревьев.
Скoрoсть ветра измеряется на высoте 10 м (на урoвне рoста челoвека скoрoсть ветра ниже в 1.5-2 раза). Если метеoстанция нахoдится в гoрoде или в лесу, тo скoрoсть ветра занижена на 2-4 м/с пo сравнению с oткрытым местoм. Скoрoсть ветра над акватoриями крупных рек и oзёр, а также на вершинах хoлмoв на 2-5 м/с выше, чем в oбычных услoвиях.
Атмoсфернoе давление в разных тoчках местнoсти мoжет значительнo oтличаться oт давления на метеoстанции, в зависимoсти oт услoвий рельефа (при пoдъёме на 10 м давление пoнижается примернo на 1 мм рт.ст.).